Location: Bailleul
(50.3375°N, 2.8513°E)
Time: 15:32:07
(UTC+00:00)

Cosmos 1461 - Pass Details

Date: 16 June 2021
Orbit: 513 x 649 km, 65.0° (Epoch: 04 August)

Event Time Altitude Azimuth Distance (km) Brightness Sun altitude
Rises 21:21:21 0° 318° (NW) 2,833 8.6 -9.3°
Reaches altitude 10° 21:23:39 10° 315° (NW) 1,904 7.1 -9.5°
Maximum altitude 21:27:53 64° 234° (SW) 627 3.1 -9.9°
Enters shadow 21:31:16 14° 155° (SSE) 1,560 4.5 -10.2°
